Time,TemperatureF,DewpointF,PressureIn,WindDirection,WindDirectionDegrees,WindSpeedMPH,WindSpeedGustMPH,Humidity,HourlyPrecipIn,Conditions,Clouds,dailyrainin,SoftwareType,DateUTC
2013-04-06 00:05:00,44.4,35.9,30.10,North,355,0.0,8.0,72,0.00,,,0.00,Wunderground v.1.15,2013-04-06 04:05:00,
2013-04-06 00:10:00,44.3,35.8,30.10,North,355,1.0,1.0,72,0.00,,,0.00,Wunderground v.1.15,2013-04-06 04:10:00,
2013-04-06 00:15:00,44.3,35.8,30.10,North,355,1.0,2.0,72,0.00,,,0.00,Wunderground v.1.15,2013-04-06 04:15:00,
2013-04-06 00:20:00,44.6,35.8,30.10,North,355,2.0,4.0,71,0.00,,,0.00,Wunderground v.1.15,2013-04-06 04:20:00,
2013-04-06 00:25:00,44.7,35.9,30.10,North,355,3.0,4.0,71,0.00,,,0.00,Wunderground v.1.15,2013-04-06 04:25:00,
2013-04-06 00:30:00,45.0,35.8,30.10,North,350,3.0,4.0,70,0.00,,,0.00,Wunderground v.1.15,2013-04-06 04:30:00,
2013-04-06 00:40:00,45.2,35.6,30.11,North,355,3.0,3.0,69,0.00,,,0.00,Wunderground v.1.15,2013-04-06 04:40:00,
2013-04-06 00:45:00,45.2,36.0,30.11,North,355,3.0,5.0,70,0.00,,,0.00,Wunderground v.1.15,2013-04-06 04:45:00,
2013-04-06 00:50:00,45.0,35.8,30.11,NNW,347,3.0,3.0,70,0.00,,,0.00,Wunderground v.1.15,2013-04-06 04:50:00,
2013-04-06 01:00:00,44.8,35.6,30.11,North,355,3.0,3.0,70,0.00,,,0.00,Wunderground v.1.15,2013-04-06 05:00:00,
2013-04-06 01:05:00,45.0,35.4,30.11,North,355,3.0,6.0,69,0.00,,,0.00,Wunderground v.1.15,2013-04-06 05:05:00,
2013-04-06 01:15:00,45.3,35.7,30.12,North,355,4.0,7.0,69,0.00,,,0.00,Wunderground v.1.15,2013-04-06 05:15:00,
2013-04-06 01:20:00,45.3,35.4,30.11,North,355,4.0,7.0,68,0.00,,,0.00,Wunderground v.1.15,2013-04-06 05:20:00,
2013-04-06 01:25:00,45.2,35.3,30.11,North,355,4.0,7.0,68,0.00,,,0.00,Wunderground v.1.15,2013-04-06 05:25:00,
2013-04-06 01:30:00,45.2,35.3,30.11,North,355,4.0,7.0,68,0.00,,,0.00,Wunderground v.1.15,2013-04-06 05:30:00,
2013-04-06 01:35:00,45.1,35.2,30.11,NNW,348,4.0,7.0,68,0.00,,,0.00,Wunderground v.1.15,2013-04-06 05:35:00,
2013-04-06 01:40:00,45.1,35.5,30.11,North,355,4.0,7.0,69,0.00,,,0.00,Wunderground v.1.15,2013-04-06 05:40:00,
2013-04-06 01:45:00,44.9,35.3,30.11,North,350,5.0,7.0,69,0.00,,,0.00,Wunderground v.1.15,2013-04-06 05:45:00,
2013-04-06 01:50:00,44.9,35.3,30.11,North,355,5.0,7.0,69,0.00,,,0.00,Wunderground v.1.15,2013-04-06 05:50:00,
2013-04-06 01:55:00,44.8,35.2,30.11,North,9,5.0,7.0,69,0.00,,,0.00,Wunderground v.1.15,2013-04-06 05:55:00,
2013-04-06 02:00:00,44.7,35.1,30.12,North,355,5.0,7.0,69,0.00,,,0.00,Wunderground v.1.15,2013-04-06 06:00:00,
2013-04-06 02:05:00,44.7,35.1,30.12,North,355,5.0,8.0,69,0.00,,,0.00,Wunderground v.1.15,2013-04-06 06:05:00,
2013-04-06 02:15:00,44.5,35.3,30.12,North,355,3.0,8.0,70,0.00,,,0.00,Wunderground v.1.15,2013-04-06 06:15:00,
2013-04-06 02:25:00,43.9,35.1,30.12,North,355,2.0,8.0,71,0.00,,,0.00,Wunderground v.1.15,2013-04-06 06:25:00,
2013-04-06 02:30:00,43.2,34.8,30.12,North,355,0.0,8.0,72,0.00,,,0.00,Wunderground v.1.15,2013-04-06 06:30:00,
2013-04-06 02:35:00,42.9,34.5,30.11,North,355,0.0,8.0,72,0.00,,,0.00,Wunderground v.1.15,2013-04-06 06:35:00,
2013-04-06 02:40:00,42.9,34.8,30.12,North,355,0.0,8.0,73,0.00,,,0.00,Wunderground v.1.15,2013-04-06 06:40:00,
2013-04-06 02:50:00,42.5,34.5,30.11,North,355,0.0,8.0,73,0.00,,,0.00,Wunderground v.1.15,2013-04-06 06:50:00,
2013-04-06 02:55:00,42.6,34.5,30.11,North,355,1.0,8.0,73,0.00,,,0.00,Wunderground v.1.15,2013-04-06 06:55:00,
2013-04-06 03:00:00,42.5,34.8,30.11,North,355,0.0,8.0,74,0.00,,,0.00,Wunderground v.1.15,2013-04-06 07:00:00,
2013-04-06 03:05:00,42.2,34.2,30.11,North,355,0.0,8.0,73,0.00,,,0.00,Wunderground v.1.15,2013-04-06 07:05:00,
2013-04-06 03:15:00,41.5,34.5,30.11,North,355,0.0,6.0,76,0.00,,,0.00,Wunderground v.1.15,2013-04-06 07:15:00,
2013-04-06 03:20:00,41.3,34.3,30.11,North,355,0.0,6.0,76,0.00,,,0.00,Wunderground v.1.15,2013-04-06 07:20:00,
2013-04-06 03:25:00,41.4,34.4,30.12,North,355,0.0,6.0,76,0.00,,,0.00,Wunderground v.1.15,2013-04-06 07:25:00,
2013-04-06 03:35:00,41.6,34.6,30.12,North,355,0.0,6.0,76,0.00,,,0.00,Wunderground v.1.15,2013-04-06 07:35:00,
2013-04-06 03:40:00,41.7,35.0,30.12,North,355,0.0,6.0,77,0.00,,,0.00,Wunderground v.1.15,2013-04-06 07:40:00,
2013-04-06 03:45:00,41.5,34.8,30.13,North,355,0.0,6.0,77,0.00,,,0.00,Wunderground v.1.15,2013-04-06 07:45:00,
2013-04-06 04:00:00,40.7,34.7,30.13,North,355,0.0,6.0,79,0.00,,,0.00,Wunderground v.1.15,2013-04-06 08:00:00,
2013-04-06 04:05:00,40.6,34.6,30.13,North,355,0.0,6.0,79,0.00,,,0.00,Wunderground v.1.15,2013-04-06 08:05:00,
2013-04-06 04:15:00,40.5,34.8,30.13,North,355,0.0,1.0,80,0.00,,,0.00,Wunderground v.1.15,2013-04-06 08:15:00,
2013-04-06 04:20:00,40.6,34.6,30.13,North,355,0.0,1.0,79,0.00,,,0.00,Wunderground v.1.15,2013-04-06 08:20:00,
2013-04-06 04:25:00,40.7,34.7,30.12,North,355,0.0,1.0,79,0.00,,,0.00,Wunderground v.1.15,2013-04-06 08:25:00,
2013-04-06 04:30:00,40.9,34.6,30.12,North,355,0.0,1.0,78,0.00,,,0.00,Wunderground v.1.15,2013-04-06 08:30:00,
2013-04-06 04:35:00,41.1,34.8,30.12,North,355,0.0,1.0,78,0.00,,,0.00,Wunderground v.1.15,2013-04-06 08:35:00,
2013-04-06 04:40:00,41.1,34.8,30.13,North,355,0.0,1.0,78,0.00,,,0.00,Wunderground v.1.15,2013-04-06 08:40:00,
2013-04-06 04:45:00,41.2,34.5,30.13,North,355,0.0,1.0,77,0.00,,,0.00,Wunderground v.1.15,2013-04-06 08:45:00,
2013-04-06 04:55:00,41.5,34.8,30.13,North,355,0.0,1.0,77,0.00,,,0.00,Wunderground v.1.15,2013-04-06 08:55:00,
2013-04-06 05:00:00,41.4,34.7,30.13,North,355,0.0,1.0,77,0.00,,,0.00,Wunderground v.1.15,2013-04-06 09:00:00,
2013-04-06 05:05:00,41.3,34.6,30.13,North,355,0.0,1.0,77,0.00,,,0.00,Wunderground v.1.15,2013-04-06 09:05:00,
2013-04-06 05:15:00,41.2,34.2,30.13,North,355,0.0,0.0,76,0.00,,,0.00,Wunderground v.1.15,2013-04-06 09:15:00,
2013-04-06 05:20:00,41.3,33.6,30.14,North,355,0.0,0.0,74,0.00,,,0.00,Wunderground v.1.15,2013-04-06 09:20:00,
2013-04-06 05:30:00,41.6,33.6,30.13,North,355,0.0,0.0,73,0.00,,,0.00,Wunderground v.1.15,2013-04-06 09:30:00,
2013-04-06 05:35:00,41.8,33.4,30.14,North,355,0.0,0.0,72,0.00,,,0.00,Wunderground v.1.15,2013-04-06 09:35:00,
2013-04-06 05:40:00,41.9,33.2,30.14,North,355,0.0,0.0,71,0.00,,,0.00,Wunderground v.1.15,2013-04-06 09:40:00,
2013-04-06 05:45:00,42.1,33.4,30.14,North,355,0.0,0.0,71,0.00,,,0.00,Wunderground v.1.15,2013-04-06 09:45:00,
2013-04-06 05:50:00,42.4,33.3,30.14,North,355,0.0,0.0,70,0.00,,,0.00,Wunderground v.1.15,2013-04-06 09:50:00,
2013-04-06 06:05:00,42.8,33.3,30.14,North,355,0.0,2.0,69,0.00,,,0.00,Wunderground v.1.15,2013-04-06 10:05:00,
2013-04-06 06:15:00,42.8,33.7,30.14,North,355,0.0,1.0,70,0.00,,,0.00,Wunderground v.1.15,2013-04-06 10:15:00,
2013-04-06 06:20:00,42.8,33.7,30.14,North,355,0.0,1.0,70,0.00,,,0.00,Wunderground v.1.15,2013-04-06 10:20:00,
2013-04-06 06:25:00,42.7,33.2,30.14,North,355,0.0,1.0,69,0.00,,,0.00,Wunderground v.1.15,2013-04-06 10:25:00,
2013-04-06 06:30:00,42.5,33.0,30.14,North,355,0.0,1.0,69,0.00,,,0.00,Wunderground v.1.15,2013-04-06 10:30:00,
2013-04-06 06:35:00,42.5,33.4,30.15,North,355,0.0,1.0,70,0.00,,,0.00,Wunderground v.1.15,2013-04-06 10:35:00,
2013-04-06 06:45:00,42.4,33.3,30.16,North,355,0.0,1.0,70,0.00,,,0.00,Wunderground v.1.15,2013-04-06 10:45:00,
2013-04-06 06:50:00,42.3,33.2,30.16,North,355,0.0,1.0,70,0.00,,,0.00,Wunderground v.1.15,2013-04-06 10:50:00,
2013-04-06 07:00:00,42.1,33.0,30.16,North,355,0.0,1.0,70,0.00,,,0.00,Wunderground v.1.15,2013-04-06 11:00:00,
2013-04-06 07:05:00,42.0,33.3,30.17,North,355,0.0,2.0,71,0.00,,,0.00,Wunderground v.1.15,2013-04-06 11:05:00,
2013-04-06 07:15:00,41.8,32.7,30.17,North,355,0.0,2.0,70,0.00,,,0.00,Wunderground v.1.15,2013-04-06 11:15:00,
2013-04-06 07:20:00,41.8,32.7,30.17,North,355,0.0,2.0,70,0.00,,,0.00,Wunderground v.1.15,2013-04-06 11:20:00,
2013-04-06 07:25:00,41.8,32.4,30.17,North,355,0.0,2.0,69,0.00,,,0.00,Wunderground v.1.15,2013-04-06 11:25:00,
2013-04-06 07:30:00,41.8,32.4,30.17,North,355,0.0,2.0,69,0.00,,,0.00,Wunderground v.1.15,2013-04-06 11:30:00,
2013-04-06 07:35:00,41.8,32.4,30.18,North,355,0.0,2.0,69,0.00,,,0.00,Wunderground v.1.15,2013-04-06 11:35:00,
2013-04-06 07:45:00,41.8,32.4,30.18,North,355,0.0,2.0,69,0.00,,,0.00,Wunderground v.1.15,2013-04-06 11:45:00,
2013-04-06 07:50:00,41.9,32.8,30.19,North,355,0.0,2.0,70,0.00,,,0.00,Wunderground v.1.15,2013-04-06 11:50:00,
2013-04-06 07:55:00,41.8,32.7,30.18,North,355,0.0,2.0,70,0.00,,,0.00,Wunderground v.1.15,2013-04-06 11:55:00,
2013-04-06 08:05:00,41.8,33.1,30.19,North,355,0.0,2.0,71,0.00,,,0.00,Wunderground v.1.15,2013-04-06 12:05:00,
2013-04-06 08:15:00,41.8,32.7,30.20,North,355,0.0,0.0,70,0.00,,,0.00,Wunderground v.1.15,2013-04-06 12:15:00,
2013-04-06 08:20:00,41.9,33.5,30.20,North,355,0.0,0.0,72,0.00,,,0.00,Wunderground v.1.15,2013-04-06 12:20:00,
2013-04-06 08:30:00,41.4,33.0,30.20,North,355,0.0,0.0,72,0.00,,,0.00,Wunderground v.1.15,2013-04-06 12:30:00,
2013-04-06 08:35:00,41.2,33.5,30.21,North,355,0.0,0.0,74,0.00,,,0.00,Wunderground v.1.15,2013-04-06 12:35:00,
2013-04-06 08:45:00,40.9,33.2,30.21,North,355,0.0,0.0,74,0.00,,,0.00,Wunderground v.1.15,2013-04-06 12:45:00,
2013-04-06 08:55:00,41.0,33.7,30.21,North,355,0.0,0.0,75,0.00,,,0.00,Wunderground v.1.15,2013-04-06 12:55:00,
2013-04-06 09:00:00,41.1,33.8,30.21,North,355,0.0,0.0,75,0.00,,,0.00,Wunderground v.1.15,2013-04-06 13:00:00,
2013-04-06 09:05:00,41.4,35.1,30.21,North,355,0.0,0.0,78,0.00,,,0.00,Wunderground v.1.15,2013-04-06 13:05:00,
2013-04-06 09:15:00,41.6,35.2,30.21,North,355,0.0,0.0,78,0.00,,,0.00,Wunderground v.1.15,2013-04-06 13:15:00,
2013-04-06 09:25:00,42.2,34.8,30.21,North,355,0.0,0.0,75,0.00,,,0.00,Wunderground v.1.15,2013-04-06 13:25:00,
2013-04-06 09:30:00,42.5,35.8,30.21,SW,227,1.0,1.0,77,0.00,,,0.00,Wunderground v.1.15,2013-04-06 13:30:00,
2013-04-06 09:35:00,42.9,35.5,30.21,SW,227,1.0,1.0,75,0.00,,,0.00,Wunderground v.1.15,2013-04-06 13:35:00,
2013-04-06 09:45:00,43.8,36.0,30.21,SW,227,0.0,0.0,74,0.00,,,0.00,Wunderground v.1.15,2013-04-06 13:45:00,
2013-04-06 09:50:00,44.2,36.8,30.21,SW,227,0.0,2.0,75,0.00,,,0.00,Wunderground v.1.15,2013-04-06 13:50:00,
2013-04-06 09:55:00,44.5,37.4,30.21,SW,227,0.0,2.0,76,0.00,,,0.00,Wunderground v.1.15,2013-04-06 13:55:00,
2013-04-06 10:00:00,44.7,37.3,30.21,SSW,207,1.0,1.0,75,0.00,,,0.00,Wunderground v.1.15,2013-04-06 14:00:00,
2013-04-06 10:05:00,45.0,37.9,30.21,SSE,167,1.0,3.0,76,0.00,,,0.00,Wunderground v.1.15,2013-04-06 14:05:00,
2013-04-06 10:15:00,46.2,38.4,30.22,South,170,1.0,3.0,74,0.00,,,0.00,Wunderground v.1.15,2013-04-06 14:15:00,
2013-04-06 10:20:00,46.8,38.9,30.21,South,185,1.0,3.0,74,0.00,,,0.00,Wunderground v.1.15,2013-04-06 14:20:00,
2013-04-06 10:25:00,47.3,39.1,30.21,SSW,202,1.0,5.0,73,0.00,,,0.00,Wunderground v.1.15,2013-04-06 14:25:00,
2013-04-06 10:35:00,48.3,39.3,30.21,SSW,200,2.0,3.0,71,0.00,,,0.00,Wunderground v.1.15,2013-04-06 14:35:00,
2013-04-06 10:40:00,49.1,39.4,30.21,SSW,202,3.0,3.0,69,0.00,,,0.00,Wunderground v.1.15,2013-04-06 14:40:00,
2013-04-06 10:45:00,49.9,39.8,30.21,South,187,3.0,3.0,68,0.00,,,0.00,Wunderground v.1.15,2013-04-06 14:45:00,
2013-04-06 10:50:00,50.4,39.5,30.21,South,185,3.0,5.0,66,0.00,,,0.00,Wunderground v.1.15,2013-04-06 14:50:00,
2013-04-06 10:55:00,50.9,38.7,30.21,SSW,198,3.0,5.0,63,0.00,,,0.00,Wunderground v.1.15,2013-04-06 14:55:00,
2013-04-06 11:05:00,52.4,38.0,30.21,South,184,2.0,6.0,58,0.00,,,0.00,Wunderground v.1.15,2013-04-06 15:05:00,
2013-04-06 11:15:00,52.9,37.6,30.21,SSW,194,4.0,8.0,56,0.00,,,0.00,Wunderground v.1.15,2013-04-06 15:15:00,
2013-04-06 11:20:00,53.5,37.3,30.21,SW,226,5.0,5.0,54,0.00,,,0.00,Wunderground v.1.15,2013-04-06 15:20:00,
2013-04-06 11:30:00,54.7,37.4,30.21,SSW,207,4.0,6.0,52,0.00,,,0.00,Wunderground v.1.15,2013-04-06 15:30:00,
2013-04-06 11:35:00,55.1,36.8,30.21,South,184,4.0,6.0,50,0.00,,,0.00,Wunderground v.1.15,2013-04-06 15:35:00,
2013-04-06 11:45:00,55.3,38.0,30.21,South,186,5.0,6.0,52,0.00,,,0.00,Wunderground v.1.15,2013-04-06 15:45:00,
2013-04-06 11:50:00,55.7,37.3,30.21,South,190,5.0,9.0,50,0.00,,,0.00,Wunderground v.1.15,2013-04-06 15:50:00,
2013-04-06 11:55:00,56.0,38.1,30.21,SSW,196,6.0,9.0,51,0.00,,,0.00,Wunderground v.1.15,2013-04-06 15:55:00,
2013-04-06 12:05:00,56.6,37.6,30.20,SSW,199,6.0,11.0,49,0.00,,,0.00,Wunderground v.1.15,2013-04-06 16:05:00,
2013-04-06 12:15:00,57.5,36.9,30.20,South,185,5.0,11.0,46,0.00,,,0.00,Wunderground v.1.15,2013-04-06 16:15:00,
2013-04-06 12:20:00,58.7,38.5,30.20,SSW,195,3.0,11.0,47,0.00,,,0.00,Wunderground v.1.15,2013-04-06 16:20:00,
2013-04-06 12:25:00,59.3,37.4,30.20,South,189,3.0,11.0,44,0.00,,,0.00,Wunderground v.1.15,2013-04-06 16:25:00,
2013-04-06 12:30:00,58.4,36.6,30.20,SW,217,4.0,4.0,44,0.00,,,0.00,Wunderground v.1.15,2013-04-06 16:30:00,
2013-04-06 12:35:00,58.9,36.4,30.20,SSW,198,5.0,7.0,43,0.00,,,0.00,Wunderground v.1.15,2013-04-06 16:35:00,
2013-04-06 12:40:00,59.0,36.5,30.20,SSW,194,5.0,11.0,43,0.00,,,0.00,Wunderground v.1.15,2013-04-06 16:40:00,
2013-04-06 12:50:00,60.5,38.5,30.19,SSW,195,4.0,11.0,44,0.00,,,0.00,Wunderground v.1.15,2013-04-06 16:50:00,
2013-04-06 13:00:00,61.6,38.9,30.19,SSW,199,4.0,11.0,43,0.00,,,0.00,Wunderground v.1.15,2013-04-06 17:00:00,
2013-04-06 13:05:00,61.3,36.1,30.19,SSW,194,4.0,15.0,39,0.00,,,0.00,Wunderground v.1.15,2013-04-06 17:05:00,
2013-04-06 13:14:00,61.5,37.6,30.19,South,184,4.0,15.0,41,0.00,,,0.00,Wunderground v.1.15,2013-04-06 17:14:00,
2013-04-06 13:20:00,62.2,36.3,30.18,South,190,5.0,15.0,38,0.00,,,0.00,Wunderground v.1.15,2013-04-06 17:20:00,
2013-04-06 13:25:00,61.4,34.9,30.18,SSW,200,6.0,15.0,37,0.00,,,0.00,Wunderground v.1.15,2013-04-06 17:25:00,
2013-04-06 13:34:00,61.8,36.6,30.18,SSW,193,4.0,15.0,39,0.00,,,0.00,Wunderground v.1.15,2013-04-06 17:34:00,
2013-04-06 13:40:00,62.7,36.7,30.18,SSW,192,3.0,15.0,38,0.00,,,0.00,Wunderground v.1.15,2013-04-06 17:40:00,
2013-04-06 13:45:00,62.6,35.3,30.17,SSW,204,5.0,15.0,36,0.00,,,0.00,Wunderground v.1.15,2013-04-06 17:45:00,
2013-04-06 13:55:00,63.4,35.2,30.17,SSW,194,6.0,8.0,35,0.00,,,0.00,Wunderground v.1.15,2013-04-06 17:55:00,
2013-04-06 14:00:00,63.9,35.7,30.17,SSW,197,6.0,15.0,35,0.00,,,0.00,Wunderground v.1.15,2013-04-06 18:00:00,
2013-04-06 14:05:00,64.1,35.9,30.16,South,185,5.0,15.0,35,0.00,,,0.00,Wunderground v.1.15,2013-04-06 18:05:00,
2013-04-06 14:20:00,64.8,35.8,30.16,East,95,3.0,14.0,34,0.00,,,0.00,Wunderground v.1.15,2013-04-06 18:20:00,
2013-04-06 14:25:00,64.6,34.1,30.16,South,186,5.0,14.0,32,0.00,,,0.00,Wunderground v.1.15,2013-04-06 18:25:00,
2013-04-06 14:30:00,63.8,34.1,30.16,South,178,7.0,7.0,33,0.00,,,0.00,Wunderground v.1.15,2013-04-06 18:30:00,
2013-04-06 14:35:00,64.8,33.4,30.15,South,190,7.0,14.0,31,0.00,,,0.00,Wunderground v.1.15,2013-04-06 18:35:00,
2013-04-06 14:40:00,64.7,34.9,30.15,SSW,194,4.0,14.0,33,0.00,,,0.00,Wunderground v.1.15,2013-04-06 18:40:00,
2013-04-06 14:50:00,64.7,34.9,30.15,South,187,5.0,14.0,33,0.00,,,0.00,Wunderground v.1.15,2013-04-06 18:50:00,
2013-04-06 14:55:00,65.1,36.8,30.14,South,178,5.0,14.0,35,0.00,,,0.00,Wunderground v.1.15,2013-04-06 18:55:00,
2013-04-06 15:00:00,64.8,35.8,30.14,SSW,205,3.0,3.0,34,0.00,,,0.00,Wunderground v.1.15,2013-04-06 19:00:00,
2013-04-06 15:05:00,65.5,34.8,30.14,SSW,206,2.0,16.0,32,0.00,,,0.00,Wunderground v.1.15,2013-04-06 19:05:00,
2013-04-06 15:15:00,65.8,35.9,30.14,SSW,193,7.0,16.0,33,0.00,,,0.00,Wunderground v.1.15,2013-04-06 19:15:00,
2013-04-06 15:20:00,65.7,37.3,30.13,South,174,7.0,7.0,35,0.00,,,0.00,Wunderground v.1.15,2013-04-06 19:20:00,
2013-04-06 15:25:00,66.4,37.2,30.13,South,180,5.0,16.0,34,0.00,,,0.00,Wunderground v.1.15,2013-04-06 19:25:00,
2013-04-06 15:30:00,65.6,37.9,30.13,SSW,199,5.0,5.0,36,0.00,,,0.00,Wunderground v.1.15,2013-04-06 19:30:00,
2013-04-06 15:39:00,65.8,37.4,30.12,SSW,204,3.0,16.0,35,0.00,,,0.00,Wunderground v.1.15,2013-04-06 19:39:00,
2013-04-06 15:45:00,65.4,37.0,30.11,SSW,201,4.0,16.0,35,0.00,,,0.00,Wunderground v.1.15,2013-04-06 19:45:00,
2013-04-06 15:50:00,65.0,39.4,30.12,SSW,211,6.0,16.0,39,0.00,,,0.00,Wunderground v.1.15,2013-04-06 19:50:00,
2013-04-06 15:55:00,65.3,36.9,30.11,South,191,6.0,16.0,35,0.00,,,0.00,Wunderground v.1.15,2013-04-06 19:55:00,
2013-04-06 16:00:00,65.5,38.5,30.12,SSW,206,4.0,16.0,37,0.00,,,0.00,Wunderground v.1.15,2013-04-06 20:00:00,
2013-04-06 16:05:00,65.7,38.0,30.11,West,267,3.0,16.0,36,0.00,,,0.00,Wunderground v.1.15,2013-04-06 20:05:00,
2013-04-06 16:15:00,65.5,37.8,30.11,SSE,164,4.0,16.0,36,0.00,,,0.00,Wunderground v.1.15,2013-04-06 20:15:00,
2013-04-06 16:24:00,64.8,37.9,30.11,SE,128,3.0,16.0,37,0.00,,,0.00,Wunderground v.1.15,2013-04-06 20:24:00,
2013-04-06 16:35:00,63.4,36.0,30.10,SSW,203,5.0,16.0,36,0.00,,,0.00,Wunderground v.1.15,2013-04-06 20:35:00,
2013-04-06 16:40:00,62.8,36.8,30.10,WSW,238,5.0,5.0,38,0.00,,,0.00,Wunderground v.1.15,2013-04-06 20:40:00,
2013-04-06 16:45:00,62.8,36.8,30.10,SSW,211,2.0,16.0,38,0.00,,,0.00,Wunderground v.1.15,2013-04-06 20:45:00,
2013-04-06 16:55:00,63.3,37.2,30.10,South,175,3.0,16.0,38,0.00,,,0.00,Wunderground v.1.15,2013-04-06 20:55:00,
2013-04-06 17:05:00,62.8,36.8,30.10,South,174,4.0,16.0,38,0.00,,,0.00,Wunderground v.1.15,2013-04-06 21:05:00,
2013-04-06 17:15:00,62.7,36.7,30.10,South,188,3.0,16.0,38,0.00,,,0.00,Wunderground v.1.15,2013-04-06 21:15:00,
2013-04-06 17:20:00,62.7,36.7,30.10,SSW,206,2.0,2.0,38,0.00,,,0.00,Wunderground v.1.15,2013-04-06 21:20:00,
2013-04-06 17:25:00,62.8,37.5,30.10,SSW,209,2.0,16.0,39,0.00,,,0.00,Wunderground v.1.15,2013-04-06 21:25:00,
2013-04-06 17:35:00,62.6,35.9,30.10,South,184,6.0,16.0,37,0.00,,,0.00,Wunderground v.1.15,2013-04-06 21:35:00,
2013-04-06 17:40:00,62.4,36.4,30.10,SSE,161,5.0,16.0,38,0.00,,,0.00,Wunderground v.1.15,2013-04-06 21:40:00,
2013-04-06 17:45:00,62.4,36.4,30.10,SSE,155,3.0,16.0,38,0.00,,,0.00,Wunderground v.1.15,2013-04-06 21:45:00,
2013-04-06 17:50:00,62.3,36.4,30.10,SSE,163,3.0,3.0,38,0.00,,,0.00,Wunderground v.1.15,2013-04-06 21:50:00,
2013-04-06 18:00:00,61.4,36.2,30.10,South,190,6.0,6.0,39,0.00,,,0.00,Wunderground v.1.15,2013-04-06 22:00:00,
2013-04-06 18:05:00,61.2,36.0,30.10,SW,231,4.0,16.0,39,0.00,,,0.00,Wunderground v.1.15,2013-04-06 22:05:00,
2013-04-06 18:15:00,60.9,35.1,30.11,SSW,192,2.0,16.0,38,0.00,,,0.00,Wunderground v.1.15,2013-04-06 22:15:00,
2013-04-06 18:20:00,60.7,35.6,30.11,SSE,165,2.0,16.0,39,0.00,,,0.00,Wunderground v.1.15,2013-04-06 22:20:00,
2013-04-06 18:30:00,60.2,35.1,30.11,SSW,212,2.0,2.0,39,0.00,,,0.00,Wunderground v.1.15,2013-04-06 22:30:00,
2013-04-06 18:35:00,60.1,35.7,30.11,South,171,2.0,16.0,40,0.00,,,0.00,Wunderground v.1.15,2013-04-06 22:35:00,
2013-04-06 18:40:00,59.9,34.9,30.11,South,177,3.0,16.0,39,0.00,,,0.00,Wunderground v.1.15,2013-04-06 22:40:00,
2013-04-06 18:50:00,59.5,35.1,30.11,SSE,150,1.0,16.0,40,0.00,,,0.00,Wunderground v.1.15,2013-04-06 22:50:00,
2013-04-06 18:55:00,59.5,35.8,30.11,SSE,163,1.0,16.0,41,0.00,,,0.00,Wunderground v.1.15,2013-04-06 22:55:00,
2013-04-06 19:00:00,59.5,34.5,30.11,South,182,2.0,16.0,39,0.00,,,0.00,Wunderground v.1.15,2013-04-06 23:00:00,
2013-04-06 19:05:00,59.5,35.1,30.11,SSE,167,3.0,16.0,40,0.00,,,0.00,Wunderground v.1.15,2013-04-06 23:05:00,
2013-04-06 19:15:00,59.0,34.1,30.12,SE,136,2.0,12.0,39,0.00,,,0.00,Wunderground v.1.15,2013-04-06 23:15:00,
2013-04-06 19:25:00,58.8,34.5,30.11,SW,223,1.0,12.0,40,0.00,,,0.00,Wunderground v.1.15,2013-04-06 23:25:00,
2013-04-06 19:30:00,58.5,34.2,30.12,SSE,164,1.0,1.0,40,0.00,,,0.00,Wunderground v.1.15,2013-04-06 23:30:00,
2013-04-06 19:35:00,58.3,34.1,30.12,SSE,148,1.0,12.0,40,0.00,,,0.00,Wunderground v.1.15,2013-04-06 23:35:00,
2013-04-06 19:45:00,57.8,34.2,30.11,SSE,167,1.0,12.0,41,0.00,,,0.00,Wunderground v.1.15,2013-04-06 23:45:00,
2013-04-06 19:50:00,57.5,34.0,30.12,SE,146,1.0,1.0,41,0.00,,,0.00,Wunderground v.1.15,2013-04-06 23:50:00,
2013-04-06 19:55:00,57.3,33.8,30.11,South,191,1.0,12.0,41,0.00,,,0.00,Wunderground v.1.15,2013-04-06 23:55:00,
2013-04-06 20:05:00,56.7,33.2,30.12,South,190,0.0,12.0,41,0.00,,,0.00,Wunderground v.1.15,2013-04-07 00:05:00,
2013-04-06 20:15:00,56.7,33.2,30.12,SSW,212,1.0,10.0,41,0.00,,,0.00,Wunderground v.1.15,2013-04-07 00:15:00,
2013-04-06 20:20:00,56.6,34.3,30.12,West,273,1.0,1.0,43,0.00,,,0.00,Wunderground v.1.15,2013-04-07 00:20:00,
2013-04-06 20:25:00,56.4,33.6,30.12,SSW,196,0.0,10.0,42,0.00,,,0.00,Wunderground v.1.15,2013-04-07 00:25:00,
2013-04-06 20:30:00,56.3,33.5,30.12,SSW,199,0.0,10.0,42,0.00,,,0.00,Wunderground v.1.15,2013-04-07 00:30:00,
2013-04-06 20:40:00,56.1,33.3,30.12,SSE,164,1.0,10.0,42,0.00,,,0.00,Wunderground v.1.15,2013-04-07 00:40:00,
2013-04-06 20:50:00,55.9,33.1,30.13,South,190,1.0,10.0,42,0.00,,,0.00,Wunderground v.1.15,2013-04-07 00:50:00,
2013-04-06 20:55:00,56.0,33.2,30.12,South,171,1.0,10.0,42,0.00,,,0.00,Wunderground v.1.15,2013-04-07 00:55:00,
2013-04-06 21:00:00,56.0,33.2,30.13,SSW,209,1.0,1.0,42,0.00,,,0.00,Wunderground v.1.15,2013-04-07 01:00:00,
2013-04-06 21:05:00,55.8,33.6,30.13,South,169,0.0,9.0,43,0.00,,,0.00,Wunderground v.1.15,2013-04-07 01:05:00,
2013-04-06 21:15:00,55.5,33.9,30.13,SW,225,0.0,9.0,44,0.00,,,0.00,Wunderground v.1.15,2013-04-07 01:15:00,
2013-04-06 21:20:00,55.3,33.2,30.14,SSE,161,0.0,9.0,43,0.00,,,0.00,Wunderground v.1.15,2013-04-07 01:20:00,
2013-04-06 21:25:00,55.2,33.6,30.13,NNE,16,1.0,9.0,44,0.00,,,0.00,Wunderground v.1.15,2013-04-07 01:25:00,
2013-04-06 21:30:00,55.0,34.0,30.13,NW,319,1.0,1.0,45,0.00,,,0.00,Wunderground v.1.15,2013-04-07 01:30:00,
2013-04-06 21:35:00,54.7,33.8,30.13,North,10,0.0,9.0,45,0.00,,,0.00,Wunderground v.1.15,2013-04-07 01:35:00,
2013-04-06 21:40:00,54.7,33.2,30.13,NNE,32,0.0,9.0,44,0.00,,,0.00,Wunderground v.1.15,2013-04-07 01:40:00,
2013-04-06 21:50:00,54.9,33.4,30.14,SSW,197,0.0,9.0,44,0.00,,,0.00,Wunderground v.1.15,2013-04-07 01:50:00,
2013-04-06 21:55:00,54.9,33.4,30.14,East,101,1.0,9.0,44,0.00,,,0.00,Wunderground v.1.15,2013-04-07 01:55:00,
2013-04-06 22:00:00,54.9,33.9,30.14,SW,236,0.0,9.0,45,0.00,,,0.00,Wunderground v.1.15,2013-04-07 02:00:00,
2013-04-06 22:05:00,54.8,33.3,30.14,South,171,0.0,9.0,44,0.00,,,0.00,Wunderground v.1.15,2013-04-07 02:05:00,
2013-04-06 22:15:00,54.8,33.3,30.14,NNW,336,1.0,8.0,44,0.00,,,0.00,Wunderground v.1.15,2013-04-07 02:15:00,
2013-04-06 22:20:00,54.8,33.8,30.14,WSW,240,1.0,1.0,45,0.00,,,0.00,Wunderground v.1.15,2013-04-07 02:20:00,
2013-04-06 22:25:00,54.7,33.2,30.13,SSW,208,1.0,4.0,44,0.00,,,0.00,Wunderground v.1.15,2013-04-07 02:25:00,
2013-04-06 22:30:00,54.7,33.2,30.13,SW,230,0.0,8.0,44,0.00,,,0.00,Wunderground v.1.15,2013-04-07 02:30:00,
2013-04-06 22:35:00,54.8,33.3,30.14,ESE,117,1.0,8.0,44,0.00,,,0.00,Wunderground v.1.15,2013-04-07 02:35:00,
2013-04-06 22:45:00,54.7,33.2,30.15,SSW,198,1.0,2.0,44,0.00,,,0.00,Wunderground v.1.15,2013-04-07 02:45:00,
2013-04-06 22:50:00,54.5,33.6,30.14,SE,137,1.0,1.0,45,0.00,,,0.00,Wunderground v.1.15,2013-04-07 02:50:00,
2013-04-06 22:55:00,54.4,33.5,30.14,SSW,211,1.0,8.0,45,0.00,,,0.00,Wunderground v.1.15,2013-04-07 02:55:00,
2013-04-06 23:00:00,54.4,33.5,30.14,East,94,1.0,8.0,45,0.00,,,0.00,Wunderground v.1.15,2013-04-07 03:00:00,
2013-04-06 23:05:00,54.3,33.4,30.14,SSW,201,1.0,13.0,45,0.00,,,0.00,Wunderground v.1.15,2013-04-07 03:05:00,
2013-04-06 23:15:00,54.4,33.5,30.14,SW,221,1.0,13.0,45,0.00,,,0.00,Wunderground v.1.15,2013-04-07 03:15:00,
2013-04-06 23:20:00,54.3,33.9,30.14,South,171,1.0,1.0,46,0.00,,,0.00,Wunderground v.1.15,2013-04-07 03:20:00,
2013-04-06 23:25:00,54.1,33.8,30.14,South,173,1.0,13.0,46,0.00,,,0.00,Wunderground v.1.15,2013-04-07 03:25:00,
2013-04-06 23:30:00,54.2,33.9,30.14,SSW,208,1.0,1.0,46,0.00,,,0.00,Wunderground v.1.15,2013-04-07 03:30:00,
2013-04-06 23:35:00,54.1,33.8,30.14,South,190,2.0,6.0,46,0.00,,,0.00,Wunderground v.1.15,2013-04-07 03:35:00,
2013-04-06 23:45:00,54.3,33.9,30.14,South,188,2.0,13.0,46,0.00,,,0.00,Wunderground v.1.15,2013-04-07 03:45:00,
2013-04-06 23:50:00,54.2,33.3,30.13,SSW,209,1.0,1.0,45,0.00,,,0.00,Wunderground v.1.15,2013-04-07 03:50:00,